Terminal Aerodrome Forecast
Issued by NWS Tulsa, OK

Home | Current Version | Previous Version | Text Only | Print | Product List | Glossary On
Versions: 1 2 3 4 5 6 7 8 9 10 11 12 13 14 15 16 17 18 19 20 21 22 23 24
000
FTUS44 KTSA 150533
TAFFSM
TAF
KFSM 150533Z 1506/1606 07006KT P6SM SCT100
     FM151400 07009KT 5SM BR OVC015
     FM160000 33007KT P6SM OVC015=

USA.gov is the U.S. government's official web portal to all federal, state and local government web resources and services.